Hanamaulu, HI

1:38 AM HST on February 13, 2016 (GMT -1000)
Lihue

Weather History for PHLI - February, 2013

Change the Weather History Date:

Sunday, February 3, 2013

  Actual Average Record
Temperature  
Mean Temperature 72 °F 72 °F  
Max Temperature 75 °F 78 °F 85 °F (1962)
Min Temperature 69 °F 65 °F 57 °F (1966)
Degree Days  
Heating Degree Days 0 0  
Month to date heating degree days 0 0  
Since 1 July heating degree days 0 0  
Cooling Degree Days 7 7  
Month to date cooling degree days 24 21  
Year to date cooling degree days 217 230  
Growing Degree Days 21 (Base 50)    
Moisture  
Dew Point 60 °F    
Average Humidity 67    
Maximum Humidity 73    
Minimum Humidity 61    
Precipitation  
Precipitation 0.00 in 0.12 in 2.08 in (1968)
Month to date precipitation 0.00 0.36  
Year to date precipitation 5.88 4.11  
Snow  
Snow 0.00 in - - ()
Month to date snowfall 0.0  
Since 1 July snowfall 0.0  
Snow Depth 0.00 in    
Sea Level Pressure  
Sea Level Pressure 30.17 in    
Wind  
Wind Speed 14 mph (NE)    
Max Wind Speed 24 mph    
Max Gust Speed 29 mph    
Visibility 10 miles    
Events      
T = Trace of Precipitation, MM = Missing Value Source: NWS Daily Summary

Daily Weather History Graph

Daily Weather History Graph

Search for Another Location

Airport or City:

Trip Planner

Search our weather history database for the weather conditions in past years. The results will help you decide how hot, cold, wet, or windy it might be!

Date:

Astronomy

Feb. 03, 2013 Rise Set
Actual Time 7:14 AM HST 6:28 PM HST
Civil Twilight 6:51 AM HST 6:51 PM HST
Nautical Twilight 6:24 AM HST 7:18 PM HST
Astronomical Twilight 5:58 AM HST 7:44 PM HST
Moon 12:52 AM HST (2/3) 12:19 PM HST (2/3)
Length of Visible Light 11h 59m
Length of Day
11h 13m
Last Quarter, 46% of the Moon is Illuminated
Feb 3
Last Quarter
Feb 9
New
Feb 17
First Quarter
Feb 25
Full
Mar 4
Last Quarter

Hourly Weather History & Observations

Time (HST) Temp. Dew Point Humidity Pressure Visibility Wind Dir Wind Speed Gust Speed Precip Events Conditions
12:53 AM 71.1 °F 61.0 °F 70% 30.16 in 10.0 mi ENE 12.7 mph - N/A   Mostly Cloudy
1:53 AM 70.0 °F 61.0 °F 73% 30.15 in 10.0 mi ENE 11.5 mph - N/A   Overcast
2:53 AM 70.0 °F 61.0 °F 73% 30.14 in 10.0 mi ENE 10.4 mph - N/A   Mostly Cloudy
3:00 AM 69.8 °F 60.8 °F 73% 30.14 in 10.0 mi NE 9.2 mph - N/A   Overcast
3:14 AM 69.8 °F 60.8 °F 73% 30.14 in 10.0 mi NE 10.4 mph - N/A   Overcast
3:21 AM 69.8 °F 60.8 °F 73% 30.14 in 10.0 mi NE 9.2 mph - N/A   Overcast
3:53 AM 70.0 °F 61.0 °F 73% 30.14 in 10.0 mi NE 9.2 mph - N/A   Overcast
4:53 AM 70.0 °F 61.0 °F 73% 30.14 in 10.0 mi NE 9.2 mph - N/A   Overcast
5:53 AM 70.0 °F 61.0 °F 73% 30.15 in 10.0 mi NE 9.2 mph - N/A   Overcast
6:53 AM 70.0 °F 60.1 °F 71% 30.17 in 10.0 mi NE 10.4 mph - N/A   Overcast
7:50 AM 69.8 °F 60.8 °F 73% 30.19 in 10.0 mi ENE 9.2 mph - N/A   Overcast
7:53 AM 70.0 °F 61.0 °F 73% 30.19 in 10.0 mi ENE 9.2 mph - N/A   Overcast
8:05 AM 71.6 °F 60.8 °F 69% 30.20 in 10.0 mi NE 10.4 mph - N/A   Overcast
8:20 AM 71.6 °F 60.8 °F 69% 30.20 in 10.0 mi NE 12.7 mph - N/A   Overcast
8:27 AM 71.6 °F 60.8 °F 69% 30.20 in 10.0 mi NE 11.5 mph - N/A   Overcast
8:53 AM 71.1 °F 60.1 °F 68% 30.20 in 10.0 mi NE 10.4 mph - N/A   Overcast
9:53 AM 73.0 °F 62.1 °F 68% 30.20 in 10.0 mi ENE 11.5 mph - N/A   Overcast
10:53 AM 73.0 °F 61.0 °F 66% 30.20 in 10.0 mi ENE 13.8 mph - N/A   Overcast
11:53 AM 73.0 °F 60.1 °F 64% 30.19 in 10.0 mi ENE 12.7 mph - N/A   Overcast
12:53 PM 73.9 °F 60.1 °F 62% 30.17 in 10.0 mi NE 13.8 mph - N/A   Overcast
1:36 PM 73.4 °F 60.8 °F 65% 30.16 in 10.0 mi NNE 15.0 mph - N/A   Overcast
1:46 PM 73.4 °F 60.8 °F 65% 30.15 in 10.0 mi NE 15.0 mph - N/A   Overcast
1:53 PM 73.0 °F 60.1 °F 64% 30.15 in 10.0 mi NE 15.0 mph - N/A   Overcast
2:53 PM 73.0 °F 59.0 °F 61% 30.14 in 10.0 mi NNE 15.0 mph - N/A   Overcast
3:53 PM 73.0 °F 60.1 °F 64% 30.14 in 10.0 mi NNE 18.4 mph - N/A   Overcast
4:53 PM 72.0 °F 57.9 °F 61% 30.14 in 10.0 mi NE 17.3 mph - N/A   Overcast
5:53 PM 72.0 °F 57.9 °F 61% 30.16 in 10.0 mi NNE 18.4 mph - N/A   Overcast
6:53 PM 70.0 °F 55.9 °F 61% 30.17 in 10.0 mi NNE 18.4 mph - N/A   Overcast
7:53 PM 71.1 °F 57.9 °F 63% 30.18 in 10.0 mi NE 21.9 mph - N/A   Overcast
8:53 PM 70.0 °F 57.0 °F 63% 30.19 in 10.0 mi NE 15.0 mph - N/A   Overcast
9:53 PM 70.0 °F 57.0 °F 63% 30.20 in 10.0 mi ENE 19.6 mph - N/A   Overcast
10:53 PM 70.0 °F 57.0 °F 63% 30.20 in 10.0 mi NE 18.4 mph - N/A   Overcast